Regional Weather Roundup
Issued by NWS

Home | Current Version | Previous Version | Text Only | Print | Product List | Glossary Off
Versions: 1 2 3 4 5 6 7 8 9 10 11 12 13 14 15 16 17 18 19 20 21 22 23 24 25 26 27 28 29 30 31 32 33 34 35 36 37 38 39 40 41 42 43 44 45 46 47 48 49 50

000
ASUS43 KBIS 281501
RWRND

NORTH DAKOTA REGIONAL WEATHER ROUNDUP
NATIONAL WEATHER SERVICE BISMARCK ND
900 AM CST WED JAN 28 2015

NOTE: "FAIR" INDICATES FEW OR NO CLOUDS BELOW 12,000 FEET WITH NO
SIGNIFICANT WEATHER AND/OR OBSTRUCTIONS TO VISIBILITY.


NDZ001>003-009>011-017-281600-
NORTHWEST NORTH DAKOTA

CITY           SKY/WX    TMP DP  RH WIND       PRES   REMARKS
WILLISTON      MOCLDY    34  31  88 VRB3      29.79R
MINOT          FOG       28  26  92 NW6       29.77R VSB 1/4
MINOT AFB      FRZ DRZL  28  28 100 N6        29.77R VSB 1/4
$$

NDZ018>021-031>035-040>046-281600-
SOUTHWEST NORTH DAKOTA

CITY           SKY/WX    TMP DP  RH WIND       PRES   REMARKS
BISMARCK       MOCLDY    28  27  96 W5        29.74R
DICKINSON      MOCLDY    40  31  70 W15       29.76R
GARRISON         N/A     29  27  92 N9        29.74R
HETTINGER ARPT CLOUDY    38  31  76 NW12      29.79R
$$

NDZ004>008-012>016-024-026-027-054-281600-
NORTHEAST NORTH DAKOTA

CITY           SKY/WX    TMP DP  RH WIND       PRES   REMARKS
GRAND FORKS    CLOUDY    33  32  96 S12       29.79S FOG
GRND FRKS AFB  FOG       32  32  97 SE6       29.78S VSB 3/4
DEVILS LAKE    CLOUDY    30  30 100 E3        29.74S VSB 1/4
$$

NDZ022-023-025-028>030-036>039-047>053-281600-
SOUTHEAST NORTH DAKOTA

CITY           SKY/WX    TMP DP  RH WIND       PRES   REMARKS
FARGO          CLOUDY    34  31  88 S18G25    29.79F FOG
JAMESTOWN      FOG       31  30  96 SE6       29.72S VSB<1/4
$$




USA.gov is the U.S. government's official web portal to all federal, state and local government web resources and services.